Frankfort, KY

6:42 AM EST on December 11, 2017 (GMT -0500)
Capital City

Weather History for KFFT - April, 2014

Change the Weather History Date:

Tuesday, April 22, 2014

  Actual Average Record
Temperature  
Mean Temperature 61 °F 57 °F  
Max Temperature 71 °F 69 °F 93 °F (1914)
Min Temperature 50 °F 45 °F 29 °F (1986)
Degree Days  
Heating Degree Days 4 8  
Month to date heating degree days 213 257  
Since 1 July heating degree days 5077 4521  
Cooling Degree Days 0 1  
Month to date cooling degree days 8 14  
Year to date cooling degree days 8 16  
Growing Degree Days 12 (Base 50)    
Moisture  
Dew Point 47 °F    
Average Humidity 61    
Maximum Humidity 93    
Minimum Humidity 28    
Precipitation  
Precipitation T in 0.13 in 1.70 in (1972)
Month to date precipitation 3.06 2.55  
Year to date precipitation 11.48 13.48  
Sea Level Pressure  
Sea Level Pressure 29.84 in    
Wind  
Wind Speed 9 mph (WNW)    
Max Wind Speed 20 mph    
Max Gust Speed 26 mph    
Visibility 9 miles    
Events Rain    
T = Trace of Precipitation, MM = Missing Value Source: NWS Daily Summary

Daily Weather History Graph

Daily Weather History Graph

Search for Another Location

Airport or City:

Trip Planner

Search our weather history database for the weather conditions in past years. The results will help you decide how hot, cold, wet, or windy it might be!

Date:

Astronomy

Apr. 22, 2014 Rise Set
Actual Time 6:54 AM EDT 8:22 PM EDT
Civil Twilight 6:26 AM EDT 8:50 PM EDT
Nautical Twilight 5:53 AM EDT 9:23 PM EDT
Astronomical Twilight 5:18 AM EDT 9:58 PM EDT
Moon 2:36 AM EDT (4/22) 1:28 PM EDT (4/22)
Length of Visible Light 14h 23m
Length of Day
13h 28m
Last Quarter, 46% of the Moon is Illuminated
Apr 22
Last Quarter
Apr 29
New
May 6
First Quarter
May 14
Full
May 21
Last Quarter

Hourly Weather History & Observations

Time (EDT) Temp. Dew Point Humidity Pressure Visibility Wind Dir Wind Speed Gust Speed Precip Events Conditions
12:53 AM 64.0 °F 51.1 °F 63% 29.86 in 10.0 mi WSW 3.5 mph - N/A   Overcast
1:53 AM 64.0 °F 51.1 °F 63% 29.85 in 10.0 mi West 5.8 mph - 0.00 in Rain Light Rain
2:53 AM 61.0 °F 54.0 °F 78% 29.83 in 10.0 mi Calm Calm - 0.00 in   Overcast
3:53 AM 60.1 °F 55.0 °F 83% 29.81 in 10.0 mi SW 5.8 mph - N/A   Overcast
4:53 AM 59.0 °F 55.9 °F 90% 29.81 in 7.0 mi SW 5.8 mph - N/A   Scattered Clouds
5:53 AM 57.9 °F 55.9 °F 93% 29.80 in 6.0 mi SW 4.6 mph - N/A   Overcast
6:53 AM 59.0 °F 55.0 °F 87% 29.80 in 7.0 mi WSW 4.6 mph - N/A   Scattered Clouds
7:53 AM 60.1 °F 55.9 °F 86% 29.81 in 6.0 mi WSW 5.8 mph - N/A   Mostly Cloudy
8:53 AM 61.0 °F 55.9 °F 83% 29.81 in 7.0 mi West 4.6 mph - N/A   Overcast
9:53 AM 63.0 °F 55.9 °F 78% 29.82 in 7.0 mi NW 10.4 mph - N/A   Overcast
10:53 AM 64.0 °F 55.9 °F 75% 29.83 in 7.0 mi WNW 9.2 mph - N/A   Overcast
11:53 AM 64.0 °F 55.9 °F 75% 29.83 in 9.0 mi Variable 6.9 mph - N/A   Overcast
12:53 PM 64.9 °F 55.9 °F 73% 29.83 in 7.0 mi WNW 9.2 mph - N/A   Overcast
1:53 PM 69.1 °F 55.9 °F 63% 29.82 in 10.0 mi NNW 11.5 mph 20.7 mph N/A   Mostly Cloudy
2:53 PM 69.1 °F 48.9 °F 49% 29.82 in 10.0 mi NNW 15.0 mph 25.3 mph N/A   Scattered Clouds
3:53 PM 70.0 °F 43.0 °F 38% 29.81 in 10.0 mi NNW 12.7 mph 23.0 mph N/A   Clear
4:53 PM 70.0 °F 37.9 °F 31% 29.81 in 10.0 mi NNW 13.8 mph 21.9 mph N/A   Clear
5:53 PM 70.0 °F 35.1 °F 28% 29.81 in 10.0 mi NNW 13.8 mph 20.7 mph N/A   Clear
6:53 PM 66.9 °F 33.1 °F 28% 29.83 in 10.0 mi NNW 13.8 mph 21.9 mph N/A   Clear
7:53 PM 64.0 °F 30.0 °F 28% 29.85 in 10.0 mi NNW 11.5 mph - N/A   Clear
8:53 PM 60.1 °F 28.9 °F 31% 29.88 in 10.0 mi NNW 12.7 mph - N/A   Clear
9:53 PM 57.0 °F 28.0 °F 33% 29.91 in 10.0 mi North 9.2 mph - N/A   Clear
10:53 PM 55.0 °F 30.0 °F 38% 29.94 in 10.0 mi North 11.5 mph - N/A   Clear
11:53 PM 52.0 °F 32.0 °F 47% 29.96 in 10.0 mi North 11.5 mph - N/A   Clear